FW2643 Weather Reports


Display with metric or nautical units.
time (UTC)temp
F
wind
direction
speed
MPH
gust
MPH
rain 1hr
in
rain 24hr
in
rain mn
in
humidity
%
barometer
mb
20181021191505 58 8 1.0 4.0 0.00 0.00 0.00 87 1024.4
20181021190005 58 1 1.0 3.0 0.00 0.00 0.00 87 1024.4
20181021184506 58 0 0.0 0.0 0.00 0.00 0.00 86 1023.4
20181021183005 58 0 0.0 0.0 0.00 0.00 0.00 85 1023.4
20181021181506 58 0 0.0 0.0 0.00 0.00 0.00 84 1023.4
20181021180005 58 0 0.0 0.0 0.00 0.00 0.00 84 1023.4
20181021174505 58 0 0.0 0.0 0.00 0.00 0.00 84 1023.4
20181021173006 58 0 0.0 0.0 0.00 0.00 0.00 83 1023.4
20181021171507 59 0 0.0 0.0 0.00 0.00 0.00 83 1023.4
20181021170231 59 0 0.0 0.0 0.00 0.00 0.00 82 1023.4
20181021164506 60 0 0.0 0.0 0.00 0.00 0.00 82 1023.4
20181021163005 60 0 0.0 0.0 0.00 0.00 0.00 82 1023.4
20181021161505 60 0 0.0 0.0 0.00 0.00 0.00 81 1022.4
20181021160006 61 0 0.0 0.0 0.00 0.00 0.00 80 1022.4
20181021154505 61 0 0.0 0.0 0.00 0.00 0.00 79 1022.4
20181021153005 62 292 0.0 1.0 0.00 0.00 0.00 77 1022.4
20181021151506 62 270 0.0 1.0 0.00 0.00 0.00 76 1022.4
20181021150006 64 251 1.0 3.0 0.00 0.00 0.00 74 1022.4
20181021144505 65 260 2.0 4.0 0.00 0.00 0.00 73 1022.4
20181021143005 67 282 1.0 3.0 0.00 0.00 0.00 72 1022.4
20181021141505 68 239 1.0 4.0 0.00 0.00 0.00 74 1022.4
20181021140005 68 273 1.0 6.0 0.00 0.00 0.00 73 1022.4
20181021134505 68 266 2.0 3.0 0.00 0.00 0.00 76 1022.4
20181021133005 68 244 1.0 5.0 0.00 0.00 0.00 73 1022.4
20181021131505 68 259 1.0 3.0 0.00 0.00 0.00 79 1022.4
20181021130005 66 272 2.0 3.0 0.00 0.00 0.00 80 1022.4
20181021124505 63 243 1.0 3.0 0.00 0.00 0.00 81 1022.4
20181021123005 61 264 2.0 6.0 0.00 0.00 0.00 81 1022.4
20181021121505 60 239 3.0 5.0 0.00 0.00 0.00 82 1022.4
20181021120006 60 243 3.0 5.0 0.00 0.00 0.00 83 1022.4
20181021114505 60 239 2.0 6.0 0.00 0.00 0.00 86 1022.4
20181021113005 59 259 1.0 4.0 0.00 0.00 0.00 88 1023.4
20181021111506 58 258 2.0 5.0 0.00 0.00 0.00 90 1023.4
20181021110005 58 228 0.0 3.0 0.00 0.00 0.00 91 1023.4
20181021104505 57 0 0.0 0.0 0.00 0.00 0.00 92 1023.4
20181021103007 57 0 0.0 0.0 0.00 0.00 0.00 93 1023.4
20181021101505 56 0 0.0 0.0 0.00 0.00 0.00 94 1023.4
20181021100006 55 0 0.0 0.0 0.00 0.00 0.00 95 1023.4
20181021094506 54 0 0.0 0.0 0.00 0.00 0.00 96 1023.4
20181021093005 53 0 0.0 0.0 0.00 0.00 0.00 97 1023.4
20181021090006 50 0 0.0 0.0 0.00 0.00 0.00 97 1023.4
20181021084505 49 0 0.0 0.0 0.00 0.00 0.00 97 1023.4
20181021083005 48 0 0.0 0.0 0.00 0.00 0.00 96 1023.4
20181021081505 47 0 0.0 0.0 0.00 0.00 0.00 96 1023.4
20181021080006 44 0 0.0 0.0 0.00 0.00 0.00 95 1023.4
20181021074506 41 0 0.0 0.0 0.00 0.00 0.00 95 1024.4
20181021073006 40 0 0.0 0.0 0.00 0.00 0.00 94 1023.4
20181021071506 39 0 0.0 0.0 0.00 0.00 0.00 94 1023.4
20181021070007 39 0 0.0 0.0 0.00 0.00 0.00 94 1023.4
20181021064506 39 0 0.0 0.0 0.00 0.00 0.00 94 1023.4
20181021063006 39 0 0.0 0.0 0.00 0.00 0.00 93 1023.4
20181021061505 39 0 0.0 0.0 0.00 0.00 0.00 93 1024.4
20181021060006 39 0 0.0 0.0 0.00 0.00 0.00 93 1023.4
20181021054506 40 0 0.0 0.0 0.00 0.00 0.00 93 1023.4
20181021053005 40 0 0.0 0.0 0.00 0.00 0.00 93 1023.4
20181021051506 40 0 0.0 0.0 0.00 0.00 0.00 93 1023.4
20181021050006 40 0 0.0 0.0 0.00 0.00 0.00 93 1023.4
20181021044505 40 0 0.0 0.0 0.00 0.00 0.00 93 1023.4
20181021043005 41 0 0.0 0.0 0.00 0.00 0.00 93 1024.4
20181021041506 41 0 0.0 0.0 0.00 0.00 0.00 93 1024.4
20181021040006 41 0 0.0 0.0 0.00 0.00 0.00 93 1024.4
20181021034505 41 0 0.0 0.0 0.00 0.00 0.00 93 1024.4
20181021033005 42 0 0.0 0.0 0.00 0.00 0.00 93 1024.4
20181021031505 42 0 0.0 0.0 0.00 0.00 0.00 93 1024.4
20181021030006 42 0 0.0 0.0 0.00 0.00 0.00 93 1024.4
20181021024505 42 0 0.0 0.0 0.00 0.00 0.00 92 1024.4
20181021023005 42 0 0.0 0.0 0.00 0.00 0.00 92 1025.4
20181021021505 43 0 0.0 0.0 0.00 0.00 0.00 92 1025.4
20181021020005 43 0 0.0 0.0 0.00 0.00 0.00 92 1025.4
20181021014506 43 0 0.0 0.0 0.00 0.00 0.00 92 1025.4
20181021013006 44 0 0.0 0.0 0.00 0.00 0.00 92 1025.4
20181021011505 44 0 0.0 0.0 0.00 0.00 0.00 92 1025.4
20181021010006 45 0 0.0 0.0 0.00 0.00 0.00 92 1025.4
20181021004505 45 0 0.0 0.0 0.00 0.00 0.00 92 1025.4
20181021003005 45 0 0.0 0.0 0.00 0.00 0.00 92 1025.4
20181021001505 46 0 0.0 0.0 0.00 0.00 0.00 91 1025.4
20181021000006 46 0 0.0 0.0 0.00 0.00 0.00 91 1025.4
20181020234506 46 0 0.0 0.0 0.00 0.00 0.00 91 1025.4
20181020233005 46 0 0.0 0.0 0.00 0.00 0.00 91 1026.4
20181020231506 47 0 0.0 0.0 0.00 0.00 0.00 90 1026.4
20181020230005 47 0 0.0 0.0 0.00 0.00 0.00 89 1026.4
20181020224506 47 0 0.0 0.0 0.00 0.00 0.00 89 1026.4
20181020223005 48 0 0.0 0.0 0.00 0.00 0.00 89 1026.4
20181020221505 49 0 0.0 0.0 0.00 0.00 0.00 89 1026.4
20181020220006 49 0 0.0 0.0 0.00 0.00 0.00 90 1026.4
20181020214514 50 0 0.0 0.0 0.00 0.00 0.00 90 1026.4
20181020213007 51 0 0.0 0.0 0.00 0.00 0.00 90 1026.4
20181020211507 51 0 0.0 0.0 0.00 0.00 0.00 89 1026.4
20181020210005 51 0 0.0 0.0 0.00 0.00 0.00 89 1026.4
20181020204505 52 0 0.0 0.0 0.00 0.00 0.00 88 1026.4
20181020203005 53 0 0.0 0.0 0.00 0.00 0.00 88 1026.4
20181020201506 53 0 0.0 0.0 0.00 0.00 0.00 87 1026.4
20181020200006 54 0 0.0 0.0 0.00 0.00 0.00 87 1026.4
20181020194505 55 0 0.0 0.0 0.00 0.00 0.00 87 1026.4
20181020193005 55 0 0.0 0.0 0.00 0.00 0.00 87 1026.4